This is the latest recevied weather packets stored in our database for station/object IU5JAE-13. If no packets are shown the sender has not sent any weather packets the latest 10 day(s).
| Time | Temp. | Humidity | Pressure | Rain* | Wind** | Luminosity | Snow |
|---|---|---|---|---|---|---|---|
| 1777681521 | 11.11° C | 45% | 1025.5 hPa | 0 mm | - | 0 W/m² | - |
| 1777680919 | 11.11° C | 45% | 1025.5 hPa | 0 mm | - | 0 W/m² | - |
| 1777680316 | 11.11° C | 45% | 1025.5 hPa | 0 mm | - | 0 W/m² | - |
| 1777679734 | 11.11° C | 45% | 1025.6 hPa | 0 mm | - | 0 W/m² | - |
| 1777679132 | 11.11° C | 46% | 1025.6 hPa | 0 mm | - | 0 W/m² | - |
| 1777678529 | 11.11° C | 46% | 1025.5 hPa | 0 mm | - | 0 W/m² | - |
| 1777677927 | 10.56° C | 46% | 1025.4 hPa | 0 mm | - | 0 W/m² | - |
| 1777677324 | 10.56° C | 48% | 1025.4 hPa | 0 mm | - | 0 W/m² | - |
| 1777676722 | 10.56° C | 49% | 1025.4 hPa | 0 mm | - | 0 W/m² | - |
| 1777676120 | 10.56° C | 49% | 1025.4 hPa | 0 mm | - | 0 W/m² | - |
| 1777675517 | 10.56° C | 50% | 1025.5 hPa | 0 mm | - | 0 W/m² | - |
| 1777674935 | 10.56° C | 49% | 1025.5 hPa | 0 mm | - | 0 W/m² | - |
| 1777674334 | 10.56° C | 50% | 1025.4 hPa | 0 mm | - | 0 W/m² | - |
| 1777673730 | 10.56° C | 49% | 1025.3 hPa | 0 mm | - | 0 W/m² | - |
| 1777673129 | 10.56° C | 49% | 1025.3 hPa | 0 mm | - | 0 W/m² | - |
| 1777672525 | 10.56° C | 51% | 1025.2 hPa | 0 mm | - | 0 W/m² | - |
| 1777671923 | 10.56° C | 49% | 1025.2 hPa | 0 mm | - | 0 W/m² | - |
| 1777671320 | 11.67° C | 46% | 1025.1 hPa | 0 mm | - | 0 W/m² | - |
| 1777670718 | 11.11° C | 46% | 1025.1 hPa | 0 mm | - | 0 W/m² | - |
| 1777670116 | 11.67° C | 45% | 1025.1 hPa | 0 mm | - | 0 W/m² | - |
| 1777669533 | 12.22° C | 44% | 1025 hPa | 0 mm | - | 0 W/m² | - |
| 1777668931 | 12.22° C | 43% | 1024.8 hPa | 0 mm | - | 0 W/m² | - |
| 1777668328 | 12.78° C | 43% | 1024.8 hPa | 0 mm | - | 0 W/m² | - |
| 1777667726 | 12.78° C | 43% | 1024.9 hPa | 0 mm | - | 0 W/m² | - |
| 1777667124 | 12.78° C | 43% | 1025 hPa | 0 mm | - | 0 W/m² | - |
* Rain latest hour (hover to see other rain measurements)
** Current wind speed in m/s (hover to see current wind gust speed)